CDT,Max TemperatureF,Mean TemperatureF,Min TemperatureF,Max Dew PointF,MeanDew PointF,Min DewpointF,Max Humidity, Mean Humidity, Min Humidity, Max Sea Level PressureIn, Mean Sea Level PressureIn, Min Sea Level PressureIn, Max VisibilityMiles, Mean VisibilityMiles, Min VisibilityMiles, Max Wind SpeedMPH, Mean Wind SpeedMPH, Max Gust SpeedMPH,PrecipitationIn, CloudCover, Events, WindDirDegrees
2011-9-1,99,84,69,73,67,61,84,60,35,30.09,30.01,29.94,10,10,8,13,3,17,0.00,0,,23
2011-9-2,97,84,70,72,68,63,93,64,35,30.02,29.95,29.88,10,10,7,15,5,20,0.00,1,,24
2011-9-3,85,77,69,67,65,63,90,71,51,29.88,29.82,29.76,10,9,5,18,10,25,0.07,2,Rain,34
2011-9-4,75,71,67,72,69,66,100,92,84,29.78,29.75,29.71,10,6,1,26,17,35,2.21,8,Rain,25
2011-9-5,80,69,58,69,57,49,100,68,36,29.94,29.79,29.70,10,10,7,36,22,45,0.01,5,,360
2011-9-6,79,65,51,51,48,43,80,55,30,30.04,29.99,29.94,10,10,10,25,15,32,0.00,0,,340
2011-9-7,80,64,48,55,51,47,93,63,32,30.12,30.08,30.03,10,10,9,22,12,26,0.00,0,,341
2011-9-8,82,67,51,55,51,44,100,64,28,30.12,30.05,29.98,10,10,10,22,11,25,0.00,0,,337
2011-9-9,86,68,49,56,51,44,100,63,25,30.04,29.99,29.94,10,8,1,16,7,21,0.00,0,,315
2011-9-10,90,72,54,61,56,52,93,62,31,30.04,29.99,29.95,10,10,8,15,4,22,0.00,0,,257
2011-9-11,90,78,65,63,60,56,87,60,32,30.09,30.03,29.99,10,10,10,15,5,20,T,2,,281
2011-9-12,95,79,62,68,62,56,100,64,28,30.14,30.06,29.99,10,9,3,10,3,,0.00,0,,355
2011-9-13,97,81,65,68,65,56,100,63,26,30.02,29.96,29.89,10,10,6,13,3,,0.00,0,,321
2011-9-14,87,76,64,74,70,63,93,75,57,30.02,29.91,29.86,10,9,5,28,7,35,0.12,3,Rain-Thunderstorm,264
2011-9-15,71,64,57,61,55,48,90,74,57,30.21,30.14,30.02,10,9,4,24,15,31,0.00,5,,3
2011-9-16,75,66,56,53,48,43,86,60,33,30.25,30.19,30.16,10,9,4,16,10,21,0.00,1,,6
2011-9-17,88,72,56,66,57,48,93,61,29,30.20,30.13,30.07,10,10,6,10,6,,T,1,,4
2011-9-18,87,79,70,72,67,63,90,69,48,30.13,30.06,29.98,10,9,6,10,4,16,T,0,,179
2011-9-19,82,74,66,72,69,65,100,79,58,30.02,29.98,29.94,10,8,1,17,9,20,0.21,5,Rain-Thunderstorm,323
2011-9-20,83,74,64,68,66,64,100,78,55,30.04,29.98,29.94,10,6,0,15,9,20,0.00,5,Fog,356
2011-9-21,88,74,59,70,62,54,100,66,31,30.07,30.03,29.99,10,6,0,21,10,26,0.00,1,Fog,344
2011-9-22,90,75,59,66,62,58,97,68,38,30.11,30.06,29.97,10,8,2,30,10,37,0.25,4,Rain-Thunderstorm,353
2011-9-23,80,67,53,61,54,48,97,66,35,30.14,30.08,30.03,10,10,10,21,12,28,0.00,2,,1
2011-9-24,84,67,50,57,51,40,100,61,22,30.04,29.97,29.88,10,10,7,10,3,14,0.00,0,,291
2011-9-25,89,75,61,72,65,54,84,66,47,29.88,29.76,29.59,10,8,0,36,11,40,1.45,3,Fog-Rain-Thunderstorm,182
2011-9-26,77,69,60,70,59,52,100,72,43,29.95,29.86,29.75,10,8,2,17,10,20,T,5,Rain,356
2011-9-27,79,70,61,69,63,57,100,84,67,29.98,29.92,29.87,10,6,0,15,5,17,0.48,5,Fog-Rain-Thunderstorm,329
2011-9-28,85,71,57,66,61,57,100,70,40,29.96,29.90,29.85,10,4,0,9,4,13,0.00,2,Fog,323
2011-9-29,89,74,59,66,62,57,100,68,36,29.96,29.91,29.85,10,8,0,16,4,17,0.00,0,Fog,310
2011-9-30,78,65,52,63,45,37,78,51,24,30.13,30.06,29.94,10,10,10,28,16,33,0.00,0,,355